| time (UTC) | temp C | wind direction | speed KPH | gust KPH | rain 1hr cm | rain 24hr cm | rain mn cm | humidity % | barometer mb |
| 20260505223039 | 25 | 241 | 3.2 | 11.3 | 0.00 | 0.00 | 0.00 | 35 | 1008.0 |
| 20260505221544 | 25 | 273 | 3.2 | 12.9 | 0.00 | 0.00 | 0.00 | 38 | 1008.0 |
| 20260505220033 | 25 | 234 | 4.8 | 12.9 | 0.00 | 0.00 | 0.00 | 39 | 1008.1 |
| 20260505214531 | 25 | 257 | 6.4 | 16.1 | 0.00 | 0.00 | 0.00 | 41 | 1008.3 |
| 20260505213030 | 24 | 254 | 4.8 | 17.7 | 0.00 | 0.00 | 0.00 | 40 | 1008.3 |
| 20260505211532 | 24 | 167 | 6.4 | 17.7 | 0.00 | 0.00 | 0.00 | 41 | 1008.5 |
| 20260505210025 | 23 | 220 | 6.4 | 16.1 | 0.00 | 0.00 | 0.00 | 42 | 1008.6 |
| 20260505204523 | 23 | 237 | 12.9 | 20.9 | 0.00 | 0.00 | 0.00 | 42 | 1008.8 |
| 20260505203022 | 23 | 223 | 11.3 | 19.3 | 0.00 | 0.00 | 0.00 | 46 | 1008.8 |
| 20260505201519 | 22 | 245 | 12.9 | 19.3 | 0.00 | 0.00 | 0.00 | 48 | 1008.8 |
| 20260505200019 | 22 | 233 | 16.1 | 25.7 | 0.00 | 0.00 | 0.00 | 48 | 1008.9 |
| 20260505194515 | 22 | 259 | 12.9 | 22.5 | 0.00 | 0.00 | 0.00 | 46 | 1008.9 |
| 20260505193014 | 21 | 227 | 12.9 | 22.5 | 0.00 | 0.00 | 0.00 | 47 | 1009.0 |
| 20260505191514 | 21 | 222 | 17.7 | 25.7 | 0.00 | 0.00 | 0.00 | 48 | 1009.0 |
| 20260505190010 | 21 | 255 | 16.1 | 24.1 | 0.00 | 0.00 | 0.00 | 53 | 1009.1 |
| 20260505184507 | 20 | 238 | 19.3 | 27.4 | 0.00 | 0.00 | 0.00 | 53 | 1009.1 |
| 20260505183009 | 20 | 252 | 17.7 | 29.0 | 0.00 | 0.00 | 0.00 | 53 | 1009.2 |
| 20260505181503 | 19 | 234 | 19.3 | 30.6 | 0.00 | 0.00 | 0.00 | 55 | 1009.3 |
| 20260505180002 | 18 | 235 | 20.9 | 32.2 | 0.00 | 0.00 | 0.00 | 57 | 1009.2 |
| 20260505174559 | 18 | 245 | 25.7 | 37.0 | 0.00 | 0.00 | 0.00 | 57 | 1009.1 |
| 20260505173057 | 18 | 248 | 24.1 | 32.2 | 0.00 | 0.00 | 0.00 | 59 | 1009.2 |
| 20260505171602 | 17 | 232 | 25.7 | 35.4 | 0.00 | 0.00 | 0.00 | 59 | 1009.0 |
| 20260505170053 | 17 | 233 | 25.7 | 35.4 | 0.00 | 0.00 | 0.00 | 61 | 1009.0 |
| 20260505164551 | 16 | 236 | 27.4 | 35.4 | 0.00 | 0.00 | 0.00 | 61 | 1009.0 |
| 20260505163049 | 16 | 227 | 25.7 | 35.4 | 0.00 | 0.00 | 0.00 | 65 | 1009.0 |
| 20260505161549 | 16 | 217 | 24.1 | 35.4 | 0.00 | 0.00 | 0.00 | 66 | 1009.0 |
| 20260505153045 | 15 | 254 | 33.8 | 41.8 | 0.00 | 0.00 | 0.00 | 69 | 1008.5 |
| 20260505151539 | 14 | 221 | 30.6 | 43.5 | 0.00 | 0.00 | 0.00 | 71 | 1008.3 |
| 20260505124523 | 12 | 235 | 27.4 | 37.0 | 0.00 | 0.00 | 0.00 | 80 | 1007.0 |
| 20260505123025 | 12 | 232 | 27.4 | 35.4 | 0.00 | 0.00 | 0.00 | 80 | 1006.7 |
| 20260505121518 | 12 | 225 | 25.7 | 35.4 | 0.00 | 0.00 | 0.00 | 80 | 1006.6 |
| 20260505120015 | 13 | 239 | 27.4 | 38.6 | 0.00 | 0.00 | 0.00 | 78 | 1006.4 |
| 20260505114512 | 13 | 243 | 29.0 | 35.4 | 0.00 | 0.00 | 0.00 | 77 | 1006.3 |
| 20260505113012 | 13 | 238 | 29.0 | 41.8 | 0.00 | 0.00 | 0.00 | 76 | 1006.3 |
| 20260505111508 | 13 | 232 | 27.4 | 38.6 | 0.00 | 0.00 | 0.00 | 76 | 1006.3 |
| 20260505101604 | 15 | 246 | 27.4 | 38.6 | 0.00 | 0.00 | 0.00 | 74 | 1005.7 |
| 20260505100057 | 15 | 236 | 27.4 | 38.6 | 0.00 | 0.00 | 0.00 | 76 | 1005.6 |
| 20260505094554 | 15 | 247 | 27.4 | 35.4 | 0.00 | 0.00 | 0.00 | 76 | 1005.6 |
| 20260505093053 | 15 | 227 | 27.4 | 40.2 | 0.00 | 0.00 | 0.00 | 77 | 1005.3 |
| 20260505091555 | 15 | 234 | 27.4 | 37.0 | 0.00 | 0.00 | 0.00 | 76 | 1005.4 |
| 20260505090053 | 15 | 248 | 29.0 | 40.2 | 0.00 | 0.00 | 0.00 | 76 | 1005.4 |
| 20260505084600 | 15 | 233 | 29.0 | 38.6 | 0.00 | 0.00 | 0.00 | 76 | 1005.2 |
| 20260505083101 | 15 | 237 | 29.0 | 37.0 | 0.00 | 0.00 | 0.00 | 75 | 1005.5 |
| 20260505081548 | 15 | 242 | 29.0 | 37.0 | 0.00 | 0.00 | 0.00 | 74 | 1005.4 |
| 20260505080047 | 15 | 222 | 24.1 | 35.4 | 0.00 | 0.00 | 0.00 | 75 | 1005.4 |
| 20260505074545 | 15 | 238 | 27.4 | 35.4 | 0.00 | 0.00 | 0.00 | 74 | 1005.2 |
| 20260505073048 | 15 | 229 | 27.4 | 35.4 | 0.00 | 0.00 | 0.00 | 73 | 1005.1 |
| 20260505071539 | 15 | 223 | 25.7 | 35.4 | 0.00 | 0.00 | 0.00 | 72 | 1005.0 |
| 20260505070036 | 16 | 234 | 24.1 | 32.2 | 0.00 | 0.00 | 0.00 | 71 | 1004.9 |
| 20260505064544 | 16 | 228 | 25.7 | 33.8 | 0.00 | 0.00 | 0.00 | 68 | 1004.8 |
| 20260505063033 | 16 | 238 | 25.7 | 35.4 | 0.00 | 0.00 | 0.00 | 67 | 1004.7 |
| 20260505061532 | 16 | 234 | 25.7 | 33.8 | 0.00 | 0.00 | 0.00 | 66 | 1004.8 |
| 20260505060032 | 17 | 236 | 27.4 | 37.0 | 0.00 | 0.00 | 0.00 | 64 | 1004.7 |
| 20260505054544 | 17 | 221 | 25.7 | 35.4 | 0.00 | 0.00 | 0.00 | 63 | 1004.7 |
| 20260505053033 | 17 | 215 | 20.9 | 29.0 | 0.00 | 0.00 | 0.00 | 62 | 1004.7 |
| 20260505051530 | 17 | 235 | 24.1 | 32.2 | 0.00 | 0.00 | 0.00 | 61 | 1004.6 |
| 20260505041528 | 18 | 238 | 24.1 | 35.4 | 0.00 | 0.00 | 0.00 | 60 | 1004.2 |
| 20260505040030 | 18 | 227 | 25.7 | 35.4 | 0.00 | 0.00 | 0.00 | 58 | 1003.9 |
| 20260505034528 | 19 | 241 | 25.7 | 35.4 | 0.00 | 0.00 | 0.00 | 57 | 1003.7 |
| 20260505033029 | 19 | 239 | 22.5 | 33.8 | 0.00 | 0.00 | 0.00 | 57 | 1003.7 |
| 20260505031526 | 20 | 236 | 24.1 | 35.4 | 0.00 | 0.00 | 0.00 | 54 | 1003.6 |
| 20260505030041 | 20 | 223 | 25.7 | 32.2 | 0.00 | 0.00 | 0.00 | 53 | 1003.5 |
| 20260505024525 | 21 | 238 | 20.9 | 32.2 | 0.00 | 0.00 | 0.00 | 51 | 1003.4 |
| 20260505023027 | 22 | 239 | 22.5 | 35.4 | 0.00 | 0.00 | 0.00 | 48 | 1003.3 |
| 20260505021525 | 22 | 247 | 25.7 | 40.2 | 0.00 | 0.00 | 0.00 | 46 | 1003.3 |
| 20260505020023 | 23 | 244 | 29.0 | 40.2 | 0.00 | 0.00 | 0.00 | 44 | 1003.3 |
| 20260505014524 | 23 | 238 | 24.1 | 35.4 | 0.00 | 0.00 | 0.00 | 41 | 1003.3 |
| 20260505013022 | 25 | 248 | 27.4 | 33.8 | 0.00 | 0.00 | 0.00 | 39 | 1003.4 |
| 20260505011523 | 25 | 237 | 22.5 | 32.2 | 0.00 | 0.00 | 0.00 | 35 | 1003.3 |
| 20260505010020 | 26 | 234 | 25.7 | 35.4 | 0.00 | 0.00 | 0.00 | 33 | 1003.5 |
| 20260505004533 | 26 | 252 | 24.1 | 33.8 | 0.00 | 0.00 | 0.00 | 34 | 1003.5 |
| 20260505003019 | 26 | 241 | 25.7 | 32.2 | 0.00 | 0.00 | 0.00 | 29 | 1003.6 |
| 20260505001519 | 26 | 263 | 22.5 | 30.6 | 0.00 | 0.00 | 0.00 | 28 | 1003.6 |
| 20260505000019 | 26 | 244 | 20.9 | 29.0 | 0.00 | 0.00 | 0.00 | 29 | 1003.5 |
| 20260504234519 | 27 | 251 | 17.7 | 25.7 | 0.00 | 0.00 | 0.00 | 30 | 1003.5 |
| 20260504233020 | 27 | 273 | 12.9 | 22.5 | 0.00 | 0.00 | 0.00 | 30 | 1003.6 |
| 20260504231515 | 27 | 244 | 16.1 | 24.1 | 0.00 | 0.00 | 0.00 | 32 | 1003.8 |
| 20260504230014 | 27 | 259 | 11.3 | 22.5 | 0.00 | 0.00 | 0.00 | 33 | 1003.9 |
| 20260504224512 | 27 | 261 | 9.7 | 24.1 | 0.00 | 0.00 | 0.00 | 33 | 1004.0 |